N0JVW-13 Weather Reports


time (UTC)temp
C
wind
direction
speed
KPH
gust
KPH
rain 1hr
cm
rain 24hr
cm
rain mn
cm
humidity
%
barometer
mb
20260905233049 33 340 0.0 1.6 0.00 0.00 0.00 52 1009.5
20260905232528 33 341 0.0 0.0 0.00 0.00 0.00 52 1009.5
20260905232007 33 341 0.0 0.0 0.00 0.00 0.00 51 1009.4
20260905231554 34 341 0.0 1.6 0.00 0.00 0.00 51 1009.4
20260905231030 34 340 0.0 1.6 0.00 0.00 0.00 50 1009.4
20260905230508 34 341 0.0 1.6 0.00 0.00 0.00 50 1009.4
20260905225532 34 341 0.0 1.6 0.00 0.00 0.00 51 1009.4
20260905225012 34 341 0.0 4.8 0.00 0.00 0.00 50 1009.4
20260905224556 34 341 0.0 4.8 0.00 0.00 0.00 50 1009.3
20260905224035 34 341 0.0 4.8 0.00 0.00 0.00 50 1009.4
20260905223514 34 327 0.0 4.8 0.00 0.00 0.00 50 1009.4
20260905223058 34 327 0.0 4.8 0.00 0.00 0.00 50 1009.4
20260905222538 34 327 0.0 4.8 0.00 0.00 0.00 49 1009.5
20260905222019 34 327 0.0 6.4 0.00 0.00 0.00 50 1009.4
20260905221600 35 327 0.0 6.4 0.00 0.00 0.00 49 1009.5
20260905221041 35 348 0.0 8.0 0.00 0.00 0.00 49 1009.6
20260905220518 35 348 0.0 8.0 0.00 0.00 0.00 50 1009.7
20260905220115 35 340 0.0 9.7 0.00 0.00 0.00 49 1009.7
20260905215542 35 340 1.6 9.7 0.00 0.00 0.00 49 1009.8
20260905215020 35 359 0.0 3.2 0.00 0.00 0.00 49 1009.9
20260905214501 35 359 0.0 3.2 0.00 0.00 0.00 50 1010.0
20260905214045 35 359 0.0 9.7 0.00 0.00 0.00 50 1010.0
20260905213524 35 359 4.8 9.7 0.00 0.00 0.00 49 1010.0
20260905213002 35 353 1.6 6.4 0.00 0.00 0.00 49 1010.1
20260905212546 35 13 0.0 4.8 0.00 0.00 0.00 50 1010.1
20260905212025 35 13 0.0 11.3 0.00 0.00 0.00 49 1010.2
20260905211505 35 15 0.0 11.3 0.00 0.00 0.00 50 1010.2
20260905211049 35 357 1.6 9.7 0.00 0.00 0.00 49 1010.2
20260905210529 35 349 4.8 9.7 0.00 0.00 0.00 48 1010.3
20260905210007 35 6 1.6 9.7 0.00 0.00 0.00 47 1010.3
20260905205553 35 6 3.2 9.7 0.00 0.00 0.00 49 1010.3
20260905205030 35 9 3.2 9.7 0.00 0.00 0.00 49 1010.4
20260905204509 35 351 3.2 6.4 0.00 0.00 0.00 46 1010.3
20260905204053 35 342 0.0 6.4 0.00 0.00 0.00 47 1010.4
20260905203532 34 317 0.0 4.8 0.00 0.00 0.00 47 1010.6
20260905203013 34 317 0.0 3.2 0.00 0.00 0.00 47 1010.7
20260905202555 35 317 0.0 3.2 0.00 0.00 0.00 47 1010.7
20260905202035 35 316 1.6 3.2 0.00 0.00 0.00 46 1010.8
20260905201516 35 316 0.0 1.6 0.00 0.00 0.00 47 1010.8
20260905201059 35 316 0.0 3.2 0.00 0.00 0.00 47 1010.8
20260905200539 35 316 0.0 3.2 0.00 0.00 0.00 44 1010.9
20260905200023 35 316 0.0 1.6 0.00 0.00 0.00 45 1011.0
20260905195602 35 316 0.0 1.6 0.00 0.00 0.00 44 1011.0
20260905195040 35 316 0.0 3.2 0.00 0.00 0.00 43 1011.0
20260905194520 35 317 0.0 0.0 0.00 0.00 0.00 45 1011.1
20260905194105 35 317 0.0 0.0 0.00 0.00 0.00 44 1011.1
20260905193543 35 317 0.0 1.6 0.00 0.00 0.00 45 1011.2
20260905193023 36 317 0.0 1.6 0.00 0.00 0.00 44 1011.2
20260905192504 36 317 0.0 1.6 0.00 0.00 0.00 45 1011.3
20260905192046 35 317 0.0 1.6 0.00 0.00 0.00 46 1011.4
20260905191530 35 317 0.0 0.0 0.00 0.00 0.00 46 1011.3
20260905191005 35 317 0.0 0.0 0.00 0.00 0.00 46 1011.4
20260905190549 35 317 0.0 0.0 0.00 0.00 0.00 44 1011.4
20260905190029 35 317 0.0 1.6 0.00 0.00 0.00 47 1011.5
20260905185508 35 317 0.0 1.6 0.00 0.00 0.00 45 1011.7
20260905185051 35 317 0.0 1.6 0.00 0.00 0.00 46 1011.7
20260905184531 34 317 0.0 0.0 0.00 0.00 0.00 47 1011.7
20260905184012 35 317 0.0 0.0 0.00 0.00 0.00 47 1011.8
20260905183556 35 317 0.0 1.6 0.00 0.00 0.00 45 1011.8
20260905183034 35 317 0.0 1.6 0.00 0.00 0.00 44 1011.9
20260905182513 35 317 0.0 1.6 0.00 0.00 0.00 43 1011.9
20260905182057 35 317 0.0 1.6 0.00 0.00 0.00 43 1012.0
20260905181536 35 317 0.0 1.6 0.00 0.00 0.00 44 1012.1
20260905181015 35 317 0.0 1.6 0.00 0.00 0.00 45 1012.2
20260905180559 35 317 0.0 4.8 0.00 0.00 0.00 46 1012.2
20260905180040 35 317 0.0 4.8 0.00 0.00 0.00 44 1012.3
20260905175518 35 317 0.0 0.0 0.00 0.00 0.00 47 1012.3
20260905175103 35 317 0.0 0.0 0.00 0.00 0.00 48 1012.3
20260905174543 34 317 0.0 1.6 0.00 0.00 0.00 49 1012.3
20260905174021 34 317 0.0 1.6 0.00 0.00 0.00 51 1012.4
20260905173500 34 317 0.0 1.6 0.00 0.00 0.00 49 1012.5
20260905173043 34 317 0.0 0.0 0.00 0.00 0.00 48 1012.6
20260905172524 34 317 0.0 0.0 0.00 0.00 0.00 49 1012.7
20260905172003 33 317 0.0 0.0 0.00 0.00 0.00 49 1012.8
20260905171557 33 317 0.0 0.0 0.00 0.00 0.00 52 1012.9
20260905171027 33 317 0.0 0.0 0.00 0.00 0.00 51 1012.9
20260905170506 33 317 0.0 0.0 0.00 0.00 0.00 52 1012.9
20260905170101 33 317 0.0 0.0 0.00 0.00 0.00 52 1012.9
20260905165534 33 317 0.0 0.0 0.00 0.00 0.00 51 1013.0
20260905165012 33 317 0.0 0.0 0.00 0.00 0.00 52 1013.1
20260905164552 33 317 0.0 3.2 0.00 0.00 0.00 51 1013.0
20260905164032 33 317 0.0 3.2 0.00 0.00 0.00 53 1013.0
20260905163513 33 317 0.0 0.0 0.00 0.00 0.00 54 1013.1
20260905163056 32 317 0.0 0.0 0.00 0.00 0.00 54 1013.0
20260905162533 32 317 0.0 0.0 0.00 0.00 0.00 55 1013.0
20260905162013 32 317 0.0 0.0 0.00 0.00 0.00 55 1013.0
20260905161557 32 317 0.0 0.0 0.00 0.00 0.00 54 1013.0
20260905161035 32 317 0.0 0.0 0.00 0.00 0.00 55 1013.1
20260905160515 32 317 0.0 0.0 0.00 0.00 0.00 56 1013.0
20260905160108 32 317 0.0 0.0 0.00 0.00 0.00 57 1013.0
20260905155538 32 317 0.0 0.0 0.00 0.00 0.00 59 1013.0
20260905155018 31 317 0.0 0.0 0.00 0.00 0.00 59 1012.9
20260905154641 31 92 0.0 0.0 0.00 0.00 0.00 60 1012.9
20260905154044 31 92 0.0 0.0 0.00 0.00 0.00 59 1012.9
20260905153519 31 152 0.0 0.0 0.00 0.00 0.00 61 1012.9
20260905153104 31 152 0.0 0.0 0.00 0.00 0.00 60 1012.9
20260905152542 31 152 0.0 0.0 0.00 0.00 0.00 62 1012.9
20260905152021 31 152 0.0 0.0 0.00 0.00 0.00 64 1012.9
20260905151501 30 152 0.0 0.0 0.00 0.00 0.00 65 1012.9
20260905151043 30 152 0.0 0.0 0.00 0.00 0.00 65 1012.9
20260905150525 30 152 0.0 0.0 0.00 0.00 0.00 67 1012.8
20260905150005 30 152 0.0 0.0 0.00 0.00 0.00 66 1012.8
20260905145549 29 152 0.0 0.0 0.00 0.00 0.00 68 1012.8
20260905145028 29 152 0.0 0.0 0.00 0.00 0.00 68 1012.8
20260905144507 28 152 0.0 0.0 0.00 0.00 0.00 69 1012.7
20260905144051 28 152 0.0 0.0 0.00 0.00 0.00 70 1012.6
20260905143532 28 152 0.0 0.0 0.00 0.00 0.00 70 1012.7
20260905143010 27 152 0.0 0.0 0.00 0.00 0.00 71 1012.6
20260905142555 27 152 0.0 0.0 0.00 0.00 0.00 71 1012.6
20260905142034 27 152 0.0 0.0 0.00 0.00 0.00 71 1012.6
20260905141514 27 152 0.0 0.0 0.00 0.00 0.00 70 1012.6
20260905141057 26 152 0.0 0.0 0.00 0.00 0.00 69 1012.7
20260905140536 26 152 0.0 0.0 0.00 0.00 0.00 66 1012.7
20260905140016 26 152 0.0 0.0 0.00 0.00 0.00 63 1012.6
20260905135559 26 152 0.0 0.0 0.00 0.00 0.00 62 1012.6
20260905135038 26 152 0.0 0.0 0.00 0.00 0.00 61 1012.6
20260905134522 25 152 0.0 0.0 0.00 0.00 0.00 62 1012.5
20260905134103 25 152 0.0 0.0 0.00 0.00 0.00 59 1012.4
20260905133540 25 152 0.0 0.0 0.00 0.00 0.00 56 1012.4
20260905133020 25 152 0.0 0.0 0.00 0.00 0.00 55 1012.3
20260905132604 25 152 0.0 0.0 0.00 0.00 0.00 52 1012.3
20260905132044 25 152 0.0 0.0 0.00 0.00 0.00 51 1012.3
20260905131533 25 152 0.0 0.0 0.00 0.00 0.00 51 1012.2
20260905131002 24 152 0.0 0.0 0.00 0.00 0.00 49 1012.2
20260905130551 24 152 0.0 0.0 0.00 0.00 0.00 48 1012.1
20260905130026 24 152 0.0 0.0 0.00 0.00 0.00 49 1012.0
20260905125505 24 152 0.0 0.0 0.00 0.00 0.00 50 1012.0
20260905125048 24 152 0.0 0.0 0.00 0.00 0.00 50 1011.9
20260905124527 23 152 0.0 0.0 0.00 0.00 0.00 49 1011.9
20260905124006 23 152 0.0 0.0 0.00 0.00 0.00 47 1011.9
20260905123550 23 152 0.0 0.0 0.00 0.00 0.00 47 1011.9
20260905123037 23 152 0.0 0.0 0.00 0.00 0.00 47 1011.8
20260905122509 23 152 0.0 0.0 0.00 0.00 0.00 47 1011.7
20260905122051 23 152 0.0 0.0 0.00 0.00 0.00 47 1011.7
20260905121537 23 152 0.0 0.0 0.00 0.00 0.00 52 1011.7
20260905121011 23 152 0.0 0.0 0.00 0.00 0.00 51 1011.7
20260905120554 23 152 0.0 0.0 0.00 0.00 0.00 49 1011.8
20260905120041 23 152 0.0 0.0 0.00 0.00 0.00 54 1011.7
20260905115513 23 152 0.0 0.0 0.00 0.00 0.00 54 1011.6
20260905115058 24 152 0.0 0.0 0.00 0.00 0.00 52 1011.6
20260905114537 24 152 0.0 0.0 0.00 0.00 0.00 54 1011.5
20260905114016 24 152 0.0 0.0 0.00 0.00 0.00 58 1011.4
20260905113556 24 149 0.0 0.0 0.00 0.00 0.00 58 1011.3
20260905113035 24 148 0.0 0.0 0.00 0.00 0.00 58 1011.3
20260905112515 24 127 0.0 1.6 0.00 0.00 0.00 58 1011.3
20260905112102 24 127 0.0 1.6 0.00 0.00 0.00 60 1011.2
20260905111552 24 127 0.0 0.0 0.00 0.00 0.00 59 1011.2
20260905111017 24 127 0.0 1.6 0.00 0.00 0.00 57 1011.1
20260905110600 24 127 0.0 1.6 0.00 0.00 0.00 56 1011.1
20260905110042 24 127 0.0 0.0 0.00 0.00 0.00 55 1010.9
20260905105520 24 127 0.0 0.0 0.00 0.00 0.00 56 1011.0
20260905105101 24 127 0.0 0.0 0.00 0.00 0.00 58 1011.0
20260905104604 24 127 0.0 0.0 0.00 0.00 0.00 58 1010.9
20260905104021 24 127 0.0 0.0 0.00 0.00 0.00 58 1010.9
20260905103605 24 127 0.0 0.0 0.00 0.00 0.00 59 1010.8
20260905103044 24 127 0.0 0.0 0.00 0.00 0.00 58 1010.8
20260905102523 24 127 0.0 0.0 0.00 0.00 0.00 58 1010.9
20260905102002 24 127 0.0 0.0 0.00 0.00 0.00 58 1010.9
20260905101550 24 127 0.0 0.0 0.00 0.00 0.00 58 1010.9
20260905101025 24 127 0.0 0.0 0.00 0.00 0.00 58 1011.0
20260905100505 24 127 0.0 0.0 0.00 0.00 0.00 57 1011.0
20260905100049 24 127 0.0 0.0 0.00 0.00 0.00 57 1010.9
20260905095529 24 127 0.0 0.0 0.00 0.00 0.00 57 1011.0
20260905095010 24 127 0.0 0.0 0.00 0.00 0.00 56 1011.0
20260905094659 24 127 0.0 0.0 0.00 0.00 0.00 58 1010.9
20260905094032 24 127 0.0 0.0 0.00 0.00 0.00 60 1011.0
20260905093510 24 127 0.0 0.0 0.00 0.00 0.00 61 1010.9
20260905093103 24 127 0.0 0.0 0.00 0.00 0.00 62 1010.9
20260905092535 24 127 0.0 0.0 0.00 0.00 0.00 62 1010.9
20260905092016 24 127 0.0 0.0 0.00 0.00 0.00 62 1010.9
20260905091602 24 127 0.0 0.0 0.00 0.00 0.00 62 1010.9
20260905091035 24 127 0.0 0.0 0.00 0.00 0.00 62 1011.0
20260905090517 25 127 0.0 0.0 0.00 0.00 0.00 62 1010.9
20260905090059 25 127 0.0 0.0 0.00 0.00 0.00 62 1010.9
20260905085538 25 127 0.0 0.0 0.00 0.00 0.00 64 1010.8
20260905085022 25 127 0.0 0.0 0.00 0.00 0.00 64 1010.8
20260905084609 25 127 0.0 0.0 0.00 0.00 0.00 64 1010.8
20260905084044 25 127 0.0 0.0 0.00 0.00 0.00 65 1010.8
20260905083521 25 127 0.0 0.0 0.00 0.00 0.00 66 1010.9
20260905083104 25 127 0.0 0.0 0.00 0.00 0.00 67 1010.9
20260905082545 25 127 0.0 0.0 0.00 0.00 0.00 67 1010.9
20260905082024 25 127 0.0 0.0 0.00 0.00 0.00 67 1010.8
20260905081502 25 127 0.0 0.0 0.00 0.00 0.00 67 1010.8
20260905081045 25 127 0.0 0.0 0.00 0.00 0.00 66 1010.8
20260905080527 25 127 0.0 0.0 0.00 0.00 0.00 68 1010.9
20260905080006 25 127 0.0 0.0 0.00 0.00 0.00 68 1010.8
20260905075548 25 127 0.0 0.0 0.00 0.00 0.00 69 1010.8
20260905075030 25 127 0.0 0.0 0.00 0.00 0.00 69 1010.8
20260905074506 25 127 0.0 0.0 0.00 0.00 0.00 69 1010.7
20260905074050 25 127 0.0 0.0 0.00 0.00 0.00 70 1010.8
20260905073529 25 127 0.0 0.0 0.00 0.00 0.00 70 1010.8
20260905073009 25 127 0.0 0.0 0.00 0.00 0.00 70 1010.7
20260905072551 25 127 0.0 0.0 0.00 0.00 0.00 71 1010.7
20260905072031 25 127 0.0 0.0 0.00 0.00 0.00 70 1010.8
20260905071511 25 127 0.0 0.0 0.00 0.00 0.00 70 1010.8
20260905071054 25 127 0.0 0.0 0.00 0.00 0.00 70 1010.9
20260905070533 25 127 0.0 0.0 0.00 0.00 0.00 70 1011.0
20260905070013 25 127 0.0 0.0 0.00 0.00 0.00 70 1010.9
20260905065557 25 127 0.0 0.0 0.00 0.00 0.00 70 1011.0
20260905065035 25 127 0.0 0.0 0.00 0.00 0.00 70 1010.9
20260905064516 25 127 0.0 0.0 0.00 0.00 0.00 70 1010.9
20260905064059 25 127 0.0 0.0 0.00 0.00 0.00 70 1011.0
20260905063538 25 127 0.0 0.0 0.00 0.00 0.00 70 1011.0
20260905063018 25 127 0.0 0.0 0.00 0.00 0.00 70 1010.9
20260905062602 26 127 0.0 0.0 0.00 0.00 0.00 70 1011.0
20260905062042 25 127 0.0 0.0 0.00 0.00 0.00 71 1011.0
20260905061529 26 127 0.0 0.0 0.00 0.00 0.00 70 1011.1
20260905061105 26 127 0.0 0.0 0.00 0.00 0.00 70 1011.1
20260905060543 26 127 0.0 0.0 0.00 0.00 0.00 71 1011.1
20260905060046 26 127 0.0 0.0 0.00 0.00 0.00 71 1011.1
20260905055502 26 127 0.0 0.0 0.00 0.00 0.00 71 1011.1
20260905055046 26 127 0.0 0.0 0.00 0.00 0.00 71 1011.1
20260905054534 26 127 0.0 0.0 0.00 0.00 0.00 71 1011.1
20260905054005 26 127 0.0 0.0 0.00 0.00 0.00 70 1011.1
20260905053551 26 127 0.0 0.0 0.00 0.00 0.00 70 1011.1
20260905053029 26 127 0.0 0.0 0.00 0.00 0.00 70 1011.1
20260905052508 26 127 0.0 0.0 0.00 0.00 0.00 70 1011.2
20260905052054 26 127 0.0 0.0 0.00 0.00 0.00 70 1011.2
20260905051537 26 127 0.0 0.0 0.00 0.00 0.00 70 1011.2
20260905051010 26 127 0.0 0.0 0.00 0.00 0.00 70 1011.1
20260905050553 26 127 0.0 0.0 0.00 0.00 0.00 71 1011.1
20260905050035 26 127 0.0 0.0 0.00 0.00 0.00 71 1011.1
20260905045516 26 127 0.0 0.0 0.00 0.00 0.00 71 1011.1
20260905045058 26 127 0.0 0.0 0.00 0.00 0.00 71 1011.2
20260905044540 26 127 0.0 0.0 0.00 0.00 0.00 71 1011.2
20260905044017 26 127 0.0 0.0 0.00 0.00 0.00 71 1011.0
20260905043601 26 127 0.0 0.0 0.00 0.00 0.00 71 1010.9
20260905043042 26 127 0.0 0.0 0.00 0.00 0.00 71 1010.9
20260905042520 26 127 0.0 0.0 0.00 0.00 0.00 71 1010.9
20260905042001 26 127 0.0 0.0 0.00 0.00 0.00 71 1010.9
20260905041545 26 127 0.0 0.0 0.00 0.00 0.00 71 1010.8
20260905041024 26 127 0.0 0.0 0.00 0.00 0.00 71 1010.9
20260905040504 26 126 0.0 0.0 0.00 0.00 0.00 71 1010.9
20260905040058 26 127 0.0 0.0 0.00 0.00 0.00 71 1010.8
20260905035530 27 127 0.0 0.0 0.00 0.00 0.00 71 1010.9
20260905035006 27 127 0.0 0.0 0.00 0.00 0.00 71 1011.0
20260905034550 27 127 0.0 0.0 0.00 0.00 0.00 71 1011.0
20260905034029 27 127 0.0 0.0 0.00 0.00 0.00 71 1011.0
20260905033509 27 127 0.0 0.0 0.00 0.00 0.00 71 1011.0
20260905033104 27 127 0.0 0.0 0.00 0.00 0.00 71 1010.9
20260905032533 27 127 0.0 0.0 0.00 0.00 0.00 71 1010.9
20260905032012 27 127 0.0 0.0 0.00 0.00 0.00 71 1010.9
20260905031559 27 127 0.0 0.0 0.00 0.00 0.00 71 1010.9
20260905031035 27 127 0.0 0.0 0.00 0.00 0.00 71 1010.9
20260905030515 27 127 0.0 0.0 0.00 0.00 0.00 71 1010.8
20260905030109 27 127 0.0 0.0 0.00 0.00 0.00 71 1010.9
20260905025541 27 127 0.0 0.0 0.00 0.00 0.00 71 1010.8
20260905025017 27 127 0.0 0.0 0.00 0.00 0.00 71 1010.7
20260905024612 27 127 0.0 0.0 0.00 0.00 0.00 71 1010.7
20260905024042 27 127 0.0 0.0 0.00 0.00 0.00 71 1010.6
20260905023519 27 127 0.0 0.0 0.00 0.00 0.00 70 1010.5
20260905023101 27 127 0.0 0.0 0.00 0.00 0.00 69 1010.5
20260905022544 27 127 0.0 0.0 0.00 0.00 0.00 69 1010.5
20260905022019 28 127 0.0 0.0 0.00 0.00 0.00 68 1010.4
20260905021615 28 127 0.0 0.0 0.00 0.00 0.00 68 1010.2
20260905021042 28 127 0.0 0.0 0.00 0.00 0.00 68 1010.2
20260905020522 28 127 0.0 0.0 0.00 0.00 0.00 68 1010.1
20260905020002 28 127 0.0 0.0 0.00 0.00 0.00 68 1010.0
20260905015547 28 127 0.0 0.0 0.00 0.00 0.00 67 1010.0
20260905015027 28 127 0.0 0.0 0.00 0.00 0.00 67 1010.0
20260905014506 28 127 0.0 0.0 0.00 0.00 0.00 66 1009.9
20260905014048 28 127 0.0 0.0 0.00 0.00 0.00 65 1009.8
20260905013527 29 127 0.0 0.0 0.00 0.00 0.00 65 1009.8
20260905013008 29 127 0.0 0.0 0.00 0.00 0.00 64 1009.7
20260905012550 29 127 0.0 0.0 0.00 0.00 0.00 64 1009.7
20260905012030 30 127 0.0 0.0 0.00 0.00 0.00 63 1009.6
20260905011509 30 127 0.0 0.0 0.00 0.00 0.00 63 1009.6
20260905011052 30 127 0.0 0.0 0.00 0.00 0.00 63 1009.5
20260905010532 30 127 0.0 0.0 0.00 0.00 0.00 61 1009.4
20260905010011 30 127 0.0 0.0 0.00 0.00 0.00 60 1009.4
20260905005555 31 127 0.0 0.0 0.00 0.00 0.00 60 1009.5
20260905005035 31 127 0.0 0.0 0.00 0.00 0.00 59 1009.4
20260905004514 31 127 0.0 0.0 0.00 0.00 0.00 58 1009.5
20260905004058 31 127 0.0 0.0 0.00 0.00 0.00 58 1009.5
20260905003538 31 127 0.0 0.0 0.00 0.00 0.00 57 1009.4
20260905003018 32 127 0.0 0.0 0.00 0.00 0.00 56 1009.4
20260905002601 32 127 0.0 0.0 0.00 0.00 0.00 56 1009.4
20260905002042 32 127 0.0 0.0 0.00 0.00 0.00 55 1009.5
20260905001518 32 127 0.0 0.0 0.00 0.00 0.00 54 1009.6
20260905001101 32 127 0.0 0.0 0.00 0.00 0.00 54 1009.5
20260905000542 32 127 0.0 0.0 0.00 0.00 0.00 53 1009.5
20260905000021 33 127 0.0 0.0 0.00 0.00 0.00 53 1009.5
20260904235603 33 127 0.0 0.0 0.00 0.00 0.00 52 1009.5
20260904235043 33 127 0.0 0.0 0.00 0.00 0.00 52 1009.6
20260904234528 33 161 0.0 0.0 0.00 0.00 0.00 51 1009.6
20260904234000 33 161 0.0 1.6 0.00 0.00 0.00 50 1009.7
20260904233549 33 144 0.0 1.6 0.00 0.00 0.00 50 1009.7